TUI12 LGAV-EDDH

Flight info

Callsign TUI12
Flight time N/A
Altitude 36000
Route KOR UL53 ELVAS DCT DIMIS DCT INLOT DCT RETRA DCT POD DCT NILKU DCT GUBOK DCT VEBAL DCT SASAL DCT PISAM DCT LALUK DCT MILGU DCT SOGMA M748 RARUP RARUP6A
Aircraft B38M/M-SDE1FGHILORVWXY/HB1

Departure

Time 2026-05-06 15:20
Airport Athens Eleftherios Venizelos International Airport (LGAV)

Arrival

Time N/A
Airport Hamburg Helmut Schmidt Airport (EDDH)
Time Latitude Longitude Altitude Speed Heading
2026-05-06 14:38 37.93410 23.94655 303 ft 0 kts 308°
2026-05-06 15:05 37.93409 23.94658 303 ft 3 kts 308°
2026-05-06 15:06 37.93393 23.94684 304 ft 4 kts 308°
2026-05-06 15:06 37.93379 23.94704 303 ft 4 kts 319°
2026-05-06 15:06 37.93358 23.94718 303 ft 4 kts
2026-05-06 15:06 37.93339 23.94710 303 ft 0 kts 37°
2026-05-06 15:11 37.93356 23.94726 303 ft 7 kts 37°
2026-05-06 15:11 37.93421 23.94788 307 ft 15 kts 37°
2026-05-06 15:12 37.93505 23.94869 304 ft 13 kts 37°
2026-05-06 15:12 37.93585 23.94946 303 ft 15 kts 37°
2026-05-06 15:12 37.93671 23.95028 303 ft 16 kts 37°
2026-05-06 15:12 37.93767 23.95120 303 ft 18 kts 37°
2026-05-06 15:13 37.93850 23.95206 304 ft 12 kts 54°
2026-05-06 15:13 37.93881 23.95301 303 ft 11 kts 69°
2026-05-06 15:13 37.93886 23.95370 303 ft 5 kts 118°
2026-05-06 15:13 37.93864 23.95398 303 ft 6 kts 135°
2026-05-06 15:14 37.93848 23.95446 299 ft 6 kts 91°
2026-05-06 15:14 37.93866 23.95488 300 ft 5 kts 36°
2026-05-06 15:14 37.93897 23.95517 299 ft 6 kts 36°
2026-05-06 15:14 37.93948 23.95565 301 ft 12 kts 37°
2026-05-06 15:15 37.94023 23.95636 301 ft 14 kts 36°
2026-05-06 15:15 37.94108 23.95716 302 ft 16 kts 36°
2026-05-06 15:15 37.94198 23.95801 301 ft 17 kts 37°
2026-05-06 15:15 37.94295 23.95892 304 ft 18 kts 36°
2026-05-06 15:16 37.94396 23.95989 302 ft 19 kts 36°
2026-05-06 15:16 37.94504 23.96092 305 ft 20 kts 37°
2026-05-06 15:16 37.94618 23.96200 302 ft 21 kts 37°
2026-05-06 15:16 37.94736 23.96313 303 ft 22 kts 37°
2026-05-06 15:17 37.94860 23.96429 303 ft 22 kts 36°
2026-05-06 15:17 37.94987 23.96550 305 ft 23 kts 36°
2026-05-06 15:17 37.95118 23.96675 305 ft 24 kts 38°
2026-05-06 15:17 37.95253 23.96803 306 ft 25 kts 37°
2026-05-06 15:18 37.95311 23.96881 306 ft 3 kts 87°
2026-05-06 15:18 37.95305 23.96891 307 ft 6 kts 130°
2026-05-06 15:18 37.95258 23.96964 310 ft 12 kts 126°
2026-05-06 15:18 37.95205 23.97025 312 ft 8 kts 168°
2026-05-06 15:19 37.95178 23.97011 312 ft 4 kts 219°
2026-05-06 15:19 37.95124 23.96959 312 ft 25 kts 217°
2026-05-06 15:19 37.94783 23.96634 303 ft 96 kts 217°
2026-05-06 15:19 37.94086 23.95972 286 ft 152 kts 217°
2026-05-06 15:20 37.93162 23.95090 557 ft 177 kts 216°
2026-05-06 15:20 37.92167 23.94211 1329 ft 175 kts 212°
2026-05-06 15:20 37.91109 23.93301 1935 ft 184 kts 214°
2026-05-06 15:20 37.89968 23.92446 2513 ft 199 kts 205°
2026-05-06 15:21 37.88676 23.91708 3039 ft 216 kts 205°
2026-05-06 15:21 37.87218 23.90852 3430 ft 244 kts 206°
2026-05-06 15:21 37.85681 23.89887 4298 ft 247 kts 208°
2026-05-06 15:21 37.84140 23.88873 5176 ft 253 kts 212°
2026-05-06 15:22 37.82877 23.87279 5733 ft 268 kts 244°
2026-05-06 15:22 37.82528 23.85007 6650 ft 265 kts 273°
2026-05-06 15:22 37.82946 23.82719 7418 ft 272 kts 293°
2026-05-06 15:22 37.83665 23.80495 8296 ft 275 kts 291°
2026-05-06 15:23 37.84365 23.78219 9151 ft 279 kts 291°
2026-05-06 15:23 37.85077 23.75924 10013 ft 283 kts 292°
2026-05-06 15:23 37.85809 23.73557 10562 ft 297 kts 292°
2026-05-06 15:23 37.86577 23.71033 10867 ft 318 kts 291°
2026-05-06 15:24 37.87390 23.68341 11191 ft 336 kts 291°
2026-05-06 15:24 37.88244 23.65520 11625 ft 349 kts 292°
2026-05-06 15:24 37.89120 23.62658 12408 ft 350 kts 292°
2026-05-06 15:24 37.90012 23.59771 13134 ft 354 kts 292°
2026-05-06 15:25 37.90914 23.56861 13878 ft 357 kts 293°
2026-05-06 15:25 37.91825 23.53921 14545 ft 360 kts 292°
2026-05-06 15:25 37.92740 23.50964 15249 ft 362 kts 292°
2026-05-06 15:25 37.93662 23.47989 15961 ft 364 kts 292°
2026-05-06 15:26 37.94589 23.44990 16609 ft 367 kts 292°
2026-05-06 15:26 37.95521 23.41974 17287 ft 369 kts 292°
2026-05-06 15:26 37.96460 23.38934 17924 ft 371 kts 292°
2026-05-06 15:26 37.97404 23.35875 18529 ft 374 kts 292°
2026-05-06 15:27 37.98354 23.32796 19072 ft 377 kts 293°
2026-05-06 15:27 37.99310 23.29688 19602 ft 380 kts 293°
2026-05-06 15:27 38.00273 23.26558 20143 ft 382 kts 293°
2026-05-06 15:27 38.01241 23.23409 20652 ft 385 kts 293°
2026-05-06 15:28 38.02217 23.20231 21160 ft 388 kts 293°
2026-05-06 15:28 38.03200 23.17027 21677 ft 391 kts 293°
2026-05-06 15:28 38.04188 23.13802 22182 ft 394 kts 293°
2026-05-06 15:28 38.05185 23.10544 22691 ft 397 kts 293°
2026-05-06 15:29 38.06186 23.07271 23176 ft 400 kts 293°
2026-05-06 15:29 38.07195 23.03963 23643 ft 403 kts 292°
2026-05-06 15:29 38.08210 23.00635 24028 ft 406 kts 292°
2026-05-06 15:29 38.09231 22.97283 24428 ft 408 kts 292°
2026-05-06 15:30 38.10243 22.93957 24817 ft 410 kts 292°
2026-05-06 15:30 38.11274 22.90568 25211 ft 413 kts 292°
2026-05-06 15:30 38.12309 22.87160 25602 ft 415 kts 292°
2026-05-06 15:30 38.13348 22.83735 25969 ft 417 kts 292°
2026-05-06 15:31 38.14392 22.80288 26348 ft 419 kts 292°
2026-05-06 15:31 38.15441 22.76822 26708 ft 422 kts 292°
2026-05-06 15:31 38.16139 22.74514 26938 ft 423 kts 291°
2026-05-06 15:32 38.18256 22.67498 27662 ft 427 kts 291°
2026-05-06 15:32 38.19323 22.63959 27997 ft 430 kts 291°
2026-05-06 15:32 38.20392 22.60404 28336 ft 432 kts 291°
2026-05-06 15:32 38.21467 22.56828 28671 ft 434 kts 291°
2026-05-06 15:33 38.22545 22.53235 28995 ft 436 kts 291°
2026-05-06 15:33 38.23628 22.49622 29332 ft 438 kts 291°
2026-05-06 15:33 38.24717 22.45986 29647 ft 441 kts 291°
2026-05-06 15:33 38.25808 22.42337 29962 ft 443 kts 291°
2026-05-06 15:34 38.26901 22.38676 30308 ft 443 kts 291°
2026-05-06 15:34 38.27994 22.35014 30697 ft 441 kts 290°
2026-05-06 15:34 38.29079 22.31369 31117 ft 439 kts 290°
2026-05-06 15:34 38.30159 22.27739 31544 ft 437 kts 290°
2026-05-06 15:35 38.31253 22.24141 31952 ft 435 kts 294°
2026-05-06 15:35 38.32828 22.20866 32378 ft 433 kts 304°
2026-05-06 15:35 38.34525 22.17702 32735 ft 432 kts 303°
2026-05-06 15:35 38.36208 22.14532 33136 ft 431 kts 303°
2026-05-06 15:36 38.37895 22.11380 33537 ft 430 kts 303°
2026-05-06 15:36 38.39578 22.08246 33937 ft 428 kts 303°
2026-05-06 15:36 38.41259 22.05121 34289 ft 426 kts 303°